Location: Antichan
(42.9728°N, 0.6667°E)
Time: 17:42:48
(UTC+00:00)

Cosmos 1980 Rocket - Pass Details

Date: 15 August 2020
Orbit: 829 x 850 km, 71.0° (Epoch: 19 September)

Event Time Altitude Azimuth Distance (km) Brightness Sun altitude
Rises 20:30:20 0° 330° (NNW) 3,414 6.6 -15.5°
Reaches altitude 10° 20:32:52 10° 325° (NW) 2,472 5.8 -15.9°
Maximum altitude 20:38:17 48° 252° (WSW) 1,089 3.0 -16.7°
Enters shadow 20:43:11 12° 181° (S) 2,281 4.1 -17.4°
